Simultaneous Nadir Overpasses (SNOs) Predictions

Prediction of SNOs between LANDSAT-8 and METOP-B Satellite Orbit:

Table of predicted SNOs for the next 14.0 days since TLE Epoch: 9/15/2017
Index Date (LANDSAT-8) Time (LANDSAT-8) Lat,Lon (LANDSAT-8) SZA (LANDSAT-8 ) Date (METOP-B) Time (METOP-B) Lat,Lon (METOP-B) SZA (METOP-B ) Distance(km) Time Diff (sec)
1 09/17/2017 04:38:30 81.11, 150.14 81.10 09/17/2017 04:38:06 81.11, 149.96 81.07 3.09 24
2 09/17/2017 05:27:56 -81.13, -41.92 98.84 09/17/2017 05:28:45 -81.14, -41.82 98.80 1.96 49
3 09/20/2017 00:12:46 81.13,-143.16 82.25 09/20/2017 00:12:28 81.12,-143.15 82.25 0.37 18
4 09/20/2017 01:02:12 -81.15, 24.80 97.69 09/20/2017 01:03:08 -81.14, 24.71 97.68 1.76 56
5 09/22/2017 19:47:02 81.12, -76.87 83.35 09/22/2017 19:46:51 81.11, -77.04 83.32 2.96 11
6 09/22/2017 20:36:28 -81.14, 91.12 96.59 09/22/2017 20:37:30 -81.14, 91.21 96.55 1.63 62
7 09/25/2017 15:21:18 81.13, -10.24 84.49 09/25/2017 15:21:13 81.13, -10.18 84.50 1.01 5
8 09/25/2017 16:10:44 -81.15, 157.77 95.44 09/25/2017 16:11:53 -81.15, 157.70 95.42 1.44 69
9 09/28/2017 10:06:09 -81.12,-111.66 94.44 09/28/2017 10:04:57 -81.12,-111.47 94.45 3.30 72
10 09/28/2017 10:55:35 81.12, 55.99 85.58 09/28/2017 10:55:37 81.12, 55.90 85.57 1.43 2




NCC Satellite Simultaneous Nadir Overpasses (SNOs) Prediction Service
